This demonstration page uses our WeatherBlox Daily Observations layout. Learn more.

Left ArrowRight Arrow

Hourly Observations for February 17, 2020

Temp ( °F °C ) Dew Point ( °F °C ) Humidity (%) Winds ( mph kmh ) Pressure ( in mb ) Visibility ( mi km ) Precip ( " mm )
12:53 am 00:53 Clear 19 -7.2 15 -9.4 84 84 SW 7 11 30.02 1017 10 16 0.00 0.00
1:53 am 01:53 Mostly Cloudy 19 -7.2 15 -9.4 84 84 Calm 30.03 1017 10 16 0.00 0.00
2:53 am 02:53 Mostly Clear 18 -7.8 15 -9.4 88 88 SW 8 13 30.05 1018 10 16 0.00 0.00
3:53 am 03:53 Mostly Cloudy 18 -7.8 15 -9.4 88 88 SW 3 6 30.06 1018 10 16 0.00 0.00
4:16 am 04:16 Partly Cloudy 15 -9.4 13 -10.6 91 91 W 3 6 30.17 1022 10 16 0.00 0.00
4:53 am 04:53 Clear 15 -9.4 12 -11.1 88 88 Calm 30.08 1019 10 16 0.00 0.00
5:53 am 05:53 Cloudy 15 -9.4 11 -11.7 84 84 ENE 3 6 30.09 1019 10 16 0.00 0.00
6:06 am 06:06 Mostly Cloudy 14 -10 12 -11.1 92 92 Calm 30.19 1022 9 14 0.00 0.00
6:53 am 06:53 Clear 15 -9.4 12 -11.1 88 88 ESE 3 6 30.09 1019 10 16 0.00 0.00
7:33 am 07:33 Partly Cloudy 14 -10 10 -12.2 84 84 ESE 3 6 30.20 1023 10 16 0.00 0.00
7:41 am 07:41 Mostly Cloudy 13 -10.6 10 -12.2 88 88 Calm 30.22 1023 10 16 0.00 0.00
7:53 am 07:53 Mostly Cloudy 14 -10 10 -12.2 84 84 Calm 30.11 1020 10 16 0.00 0.00
8:10 am 08:10 Partly Cloudy 15 -9.4 12 -11.1 88 88 Calm 30.20 1023 10 16 0.00 0.00
8:53 am 08:53 Mostly Cloudy 18 -7.8 15 -9.4 88 88 W 5 7 30.13 1020 10 16 0.00 0.00
9:03 am 09:03 Cloudy with Mist and Fog 19 -7.2 17 -8.3 92 92 WNW 5 7 30.20 1023 2 3 0.00 0.00
9:06 am 09:06 Cloudy with Mist and Fog 19 -7.2 17 -8.3 92 92 W 3 6 30.20 1023 1 1 0.00 0.00
9:17 am 09:17 Mostly Cloudy with Freezing Fog 19 -7.2 18 -7.8 96 96 W 3 6 30.20 1023 0 0 0.00 0.00
9:53 am 09:53 Mostly Cloudy with Freezing Fog 20 -6.7 19 -7.2 96 96 W 3 6 30.14 1021 0 0 0.00 0.00
10:11 am 10:11 Mostly Cloudy with Mist and Fog 21 -6.1 19 -7.2 92 92 WSW 6 9 30.20 1023 1 2 0.00 0.00
10:13 am 10:13 Cloudy with Mist and Fog 21 -6.1 19 -7.2 92 92 WSW 6 9 30.20 1023 3 4 0.00 0.00
10:20 am 10:20 Cloudy with Mist and Fog 21 -6.1 19 -7.2 92 92 WSW 6 9 30.20 1023 5 8 0.00 0.00
10:53 am 10:53 Cloudy 24 -4.4 22 -5.6 91 91 W 3 6 30.14 1021 7 11 0.00 0.00
11:19 am 11:19 Mostly Cloudy 26 -3.3 24 -4.4 92 92 SW 5 7 30.17 1022 10 16 0.00 0.00
11:35 am 11:35 Partly Cloudy 27 -2.8 25 -3.9 92 92 Calm 30.16 1021 10 16 0.00 0.00
11:49 am 11:49 Mostly Cloudy 28 -2 25 -4 86 86 W 12 19 30.16 1021 10 16 0.00 0.00
11:53 am 11:53 Mostly Cloudy 29 -1.7 25 -3.9 85 85 WSW 9 15 30.14 1021 10 16 0.00 0.00
12:03 pm 12:03 Partly Cloudy 29 -1.7 25 -3.9 85 85 WSW 7 11 30.16 1021 10 16 0.00 0.00
12:53 pm 12:53 Sunny 32 0 25 -3.9 75 75 WSW 12 19 30.12 1020 10 16 0.00 0.00
1:53 pm 13:53 Cloudy 35 1.7 24 -4.4 64 64 VRB 3 6 30.11 1020 10 16 0.00 0.00
2:53 pm 14:53 Cloudy 37 2.8 22 -5.6 54 54 WSW 9 15 30.11 1020 10 16 0.00 0.00
3:43 pm 15:43 Cloudy 29 -1.7 24 -4.4 82 82 N 15 24 30.17 1022 10 16 0.00 0.00
3:53 pm 15:53 Cloudy 28 -2.2 22 -5.6 78 78 NNW 18 30 30.18 1022 10 16 0.00 0.00
4:24 pm 16:24 Cloudy 24 -4.4 20 -6.7 84 84 N 20 31 30.25 1024 9 14 0.00 0.00
4:48 pm 16:48 Cloudy 21 -6 19 -7 93 93 N 15 24 30.29 1026 8 13 0.00 0.00
4:53 pm 16:53 Cloudy 22 -5.6 18 -7.8 85 85 N 15 24 30.25 1025 8 13 0.00 0.00
5:09 pm 17:09 Cloudy 21 -6.1 16 -8.9 81 81 NNE 10 17 30.31 1026 10 16 0.00 0.00
5:53 pm 17:53 Cloudy 20 -6.7 15 -9.4 81 81 NNE 14 22 30.30 1026 10 16 0.00 0.00
6:39 pm 18:39 Cloudy 18 -7.8 12 -11.1 77 77 NNE 12 19 30.39 1029 10 16 0.00 0.00
6:53 pm 18:53 Cloudy 17 -8.3 11 -11.7 77 77 NE 13 20 30.34 1028 10 16 0.00 0.00
7:53 pm 19:53 Cloudy 16 -8.9 9 -12.8 74 74 NNE 10 17 30.37 1029 10 16 0.00 0.00
8:53 pm 20:53 Cloudy 15 -9.4 7 -13.9 70 70 NNE 6 9 30.39 1029 10 16 0.00 0.00
9:53 pm 21:53 Cloudy 14 -10 7 -13.9 73 73 NNE 5 7 30.42 1030 10 16 0.00 0.00
10:53 pm 22:53 Cloudy 13 -10.6 6 -14.4 74 74 N 5 7 30.42 1030 10 16 0.00 0.00
11:33 pm 23:33 Cloudy with Light Snow 11 -11.7 6 -14.4 81 81 NNE 10 17 30.55 1035 3 4 0.00 0.00
11:41 pm 23:41 Cloudy with Light Snow 11 -11.7 6 -14.4 81 81 NNE 14 22 30.55 1035 3 5 0.00 0.00
11:53 pm 23:53 Cloudy with Light Snow 10 -12.2 4 -15.6 76 76 NE 10 17 30.45 1031 3 5 0.00 0.00

Powered by AerisWeather